Regional Weather Roundup
Issued by NWS

Home | Current Version | Previous Version | Text Only | Print | Product List | Glossary Off
Versions: 1 2 3 4 5 6 7 8 9 10 11 12 13 14 15 16 17 18 19 20 21 22 23 24 25 26 27 28 29 30 31 32 33 34 35 36 37 38 39 40 41 42 43 44 45 46 47 48 49 50

000
ASUS43 KMKX 302121
RWRWI

WISCONSIN REGIONAL WEATHER ROUNDUP
NATIONAL WEATHER SERVICE MILWAUKEE/SULLIVAN WI
400 PM CDT WED JUL 30 2014

NOTE: "FAIR" INDICATES FEW OR NO CLOUDS BELOW 12,000 FEET WITH NO
SIGNIFICANT WEATHER AND/OR OBSTRUCTIONS TO VISIBILITY.

WIZ001-002-006>008-014>016-023>028-302200-
NORTHWEST WISCONSIN

CITY           SKY/WX    TMP DP  RH WIND       PRES   REMARKS
SUPERIOR ARPT  MOSUNNY   80  60  50 NW16G23   29.96F HX  80
ASHLAND        MOSUNNY   75  61  61 SW7       29.97F
HAYWARD        MOSUNNY   67  60  78 SW6       30.01S
SIREN          MOSUNNY   78  58  50 W12       30.01F
RICE LAKE      MOSUNNY   76  57  51 W10       30.03F
LADYSMITH      MOSUNNY   72  58  61 SW5       30.05F
EAU CLAIRE     MOSUNNY   77  57  50 SW9       30.02F
MENOMONIE      MOCLDY    78  58  49 W7        30.03F
NEW RICHMOND   CLOUDY    72  64  74 CALM      30.04F
OSCEOLA        PTSUNNY   79  57  47 W8        30.05F HX  80
$$

WIZ003>005-009-010-017-018-302200-
NORTH CENTRAL WISCONSIN

CITY           SKY/WX    TMP DP  RH WIND       PRES   REMARKS
WOODRUFF       MOSUNNY   77  54  45 W9G17     30.00F
RHINELANDER    MOSUNNY   72  50  45 W8        30.02F
EAGLE RIVER    PTSUNNY   70  49  48 W6        29.99F
LAND O LAKES   MOSUNNY   73  47  39 W7        30.00F
PHILLIPS       SUNNY     71  53  53 W6        30.01F
TOMAHAWK       MOSUNNY   70  50  50 W7        30.02F
MEDFORD        SUNNY     70  54  55 W7        30.04F
MERRILL        MOSUNNY   72  52  50 NW8       30.02F
$$

WIZ029-030-035-036-043>047-302200-
CENTRAL WISCONSIN

CITY           SKY/WX    TMP DP  RH WIND       PRES   REMARKS
WAUSAU         MOSUNNY   73  48  41 NW13G18   30.01F
MOSINEE        MOSUNNY   73  46  38 SW9       30.04F
MARSHFIELD     SUNNY     74  51  44 NW9       30.03F
STEVENS POINT  MOSUNNY   73  46  38 W12       30.03S
WAUPACA        SUNNY     79  44  28 W9        30.01F
WAUTOMA        SUNNY     78  45  31 W9        30.02F
WISC RAPIDS    SUNNY     76  49  38 W8        30.04F
CAMP DOUGLAS   MOSUNNY   73  57  56 W6        30.04F
$$

WIZ011>013-019>022-031-037>040-048>050-302200-
NORTHEAST WISCONSIN

CITY           SKY/WX    TMP DP  RH WIND       PRES   REMARKS
ANTIGO         PTSUNNY   70  51  51 W10       30.02F
STURGEON BAY   SUNNY     70  54  56 S8        30.00F
GREEN BAY      MOSUNNY   73  53  49 W7        29.99F
MANITOWOC      SUNNY     67  55  65 SE13      30.01F
APPLETON       PTSUNNY   73  48  40 NW6       30.02F
CLINTONVILLE   PTSUNNY   75  45  33 W8        30.00F
OSHKOSH        SUNNY     74  52  46 VRB3      30.01F
$$

WIZ032>034-041-042-053>061-302200-
SOUTHWEST WISCONSIN

CITY           SKY/WX    TMP DP  RH WIND       PRES   REMARKS
LA CROSSE      SUNNY     79  57  46 NW10      30.04F HX  80
SPARTA         SUNNY     75  53  45 NW7       30.05F
VIROQUA        FAIR      74  55  51 NW7       30.07S
BOSCOBEL       MOSUNNY   82  54  37 NW8       30.04F HX  81
PRAIRIE DU CHI SUNNY     79  52  38 N8        30.04F
PLATTEVILLE    FAIR      78  53  41 NW13      30.06S
$$

WIZ056-057-062-063-064-067-068-302200-
SOUTH CENTRAL WISCONSIN

CITY           SKY/WX    TMP DP  RH WIND       PRES   REMARKS
BARABOO/DELLS  SUNNY     75  45  33 W6        30.04F
LONE ROCK      SUNNY     82  52  35 N8        30.03F HX  81
WATERTOWN      MOSUNNY   74  54  50 W9        30.03S
MADISON        MOSUNNY   77  53  43 N8        30.04S
MIDDLETON      FAIR      77  47  34 W5        30.04F
MONROE         MOSUNNY   77  54  44 NW7       30.04F
JANESVILLE     MOSUNNY   79  54  41 NW12      30.02S
$$

WIZ051-052-058>065-066-070>072-302200-
SOUTHEAST WISCONSIN

CITY           SKY/WX    TMP DP  RH WIND       PRES   REMARKS
MILWAUKEE      MOSUNNY   68  56  65 E8        30.03F
WAUKESHA       MOSUNNY   72  55  56 W7        30.04S
MILWAUKEE/TIMM MOSUNNY   70  52  52 E7        30.04S
RACINE         SUNNY     71  57  61 NE7       30.05F
BURLINGTON     MOSUNNY   73  52  47 NW10      30.03F
KENOSHA        MOSUNNY   69  59  70 E7        30.04S
FOND DU LAC    MOSUNNY   74  50  42 VRB6      30.02F
SHEBOYGAN      PTSUNNY   74  51  44 W6        30.01F
WEST BEND      SUNNY     72  46  40 NW5       30.03S
JUNEAU         MOSUNNY   73  44  36 W5        30.04F
$$

LSZ147-162-302200-
LAKE SUPERIOR

STATION/POSITION TIME  TEMP    WIND        PRES    WAVE
                       AIR SEA DIR/SP/G            HT/PER
                 (UTC) (F)     (DEG/KT/KT) (MB)    (FT/S)
W MID LAKE BUOY  2050   51 43  200/  6/ 14 1014.0R   1/ 3
PORT WING        2000   74     250/  9/ 13 1014.6F
SAXON HARBOR     2000          250/  6/ 11 1015.2F
$$

LMZ867-665-643>646-302200-
LAKE MICHIGAN

STATION/POSITION TIME  TEMP    WIND        PRES    WAVE
                       AIR SEA DIR/SP/G            HT/PER
                 (UTC) (F)     (DEG/KT/KT) (MB)    (FT/S)
N MID LAKE BUOY  2050   54 54  190/  8/ 10 1015.2F   0
NORTHPORT PIER   2000   63     140/  8/ 11 1015.9F
SISTER BAY       2040   73     180/  9/ 11   N/A
KEWAUNEE LAKESHO 2100          160/  6/  7   N/A
SHEBOYGAN LAKESH 2100   61     150/  7/  7 1016.6F
PORT WASHINGTON  2000   66     140/  5/  7 1017.6S
ATWATER BUOY     2100   63     150/  6     1018.1F
MILWAUKEE LAKESH 2100   62     140/  5/  6   N/A
S MID LAKE BUOY  2050   59 62  330/  4/  6 1017.2F   1
KENOSHA   LAKESH 2100   63      50/  7/  8 1016.9S
$$

TC  - TEMPERATURE IN CELSIUS
VSB - VISIBILITY IN STATUTE MILES
WCI - WIND CHILL INDEX
HX  - HEAT INDEX




USA.gov is the U.S. government's official web portal to all federal, state and local government web resources and services.